www.pogodaiklimat.ru

Погода и климат >> Архив погоды >> Великобритания >> Варкоп


ПОГОДА в Варкопе

  • Прогноз погоды в Варкопе
  • Монитор погоды в Варкопе

АРХИВ ПОГОДЫ в Варкопе

Время (UTC), дата Ветер
(напр.,м/с)
 
Видим.   Явления Облачность Т
(С)
Тd
(С)
f
(%)
Тe
(С)
Тes
(С)
Комфортность P
(гПа)
Po
(гПа)
Тmin
(С)
Tmax
(С)
R
(мм)
R24
(мм)
S
(см)
01 12.08 З 2 45 км н/о +10.4 +9.3 93 +9 +9 1009.8 982.6
02 12.08 З 5 4800 м дымка н/о +9.6 +8.9 95 +6 +6 1010.0 982.7
03 12.08 З 5 5000 м дымка н/о +9.3 +9.1 99 +6 +6 1010.3 983.0
04 12.08 СЗ 4 50 км н/о +9.0 +8.8 99 +6 +6 1011.0 983.6
05 12.08 СЗ 3 3700 м слаб. морось с дождем н/о +8.9 +8.7 99 +6 +6 1011.5 984.1
06 12.08 СЗ 3 3100 м слаб. морось н/о +8.8 +8.7 99 +6 +6 1011.8 984.4 +8.7 1
07 12.08 СЗ 2 2000 м в посл. час дождь н/о +9.0 +8.9 99 +7 +7 1012.3 984.9
08 12.08 СЗ 3 30 км н/о +9.3 +9.2 99 +7 +7 1012.8 985.4
09 12.08 СЗ 3 18 км н/о +9.8 +9.5 98 +7 +7 1013.1 985.8
10 12.08 С 2 45 км в посл. час дождь н/о +10.7 +10.2 97 +9 +9 1013.4 986.1
11 12.08 СЗ 4 50 км н/о +12.1 +9.3 83 +10 +10 1013.2 986.1
12 12.08 СЗ 5 45 км н/о +13.3 +7.1 66 +11 +11 1013.2 986.2 0.8
13 12.08 СЗ 5 45 км н/о +12.9 +6.4 65 +11 +11 1013.3 986.3
14 12.08 СЗ 4 29 км н/о +14.1 +6.1 59 +13 +13 1013.2 986.2
15 12.08 З 5 45 км н/о +14.6 +7.0 60 +13 +13 1013.2 986.3
16 12.08 СЗ 4 45 км в посл. час дождь н/о +14.5 +6.7 59 +13 +13 1013.2 986.3
17 12.08 СЗ 4 50 км н/о +13.7 +7.6 67 +12 +12 1013.4 986.4
18 12.08 СЗ 2 45 км н/о +13.9 +7.8 67 +13 +13 1013.4 986.4 +15.6 0.8
19 12.08 З 1 50 км н/о +12.5 +7.5 72 +13 +13 1013.9 986.8
20 12.08 ЮЗ 2 50 км н/о +11.1 +8.4 83 +10 +10 1014.6 987.3
21 12.08 З 2 35 км слаб. ливневой дождь н/о +10.3 +8.2 87 +9 +9 1014.9 987.5
22 12.08 СЗ 1 15 км дождь н/о +10.1 +9.4 95 +9 +9 1015.1 987.7
23 12.08 ЮВ 1 50 км слаб. дождь н/о +9.4 +8.0 91 +9 +9 1014.7 987.2
00 13.08 В 1 50 км в посл. час дождь н/о +8.3 +7.3 93 +7 +7 1014.7 987.2 4
01 13.08 СВ 1 21 км слаб. ливневой дождь н/о +9.1 +8.4 95 +8 +8 1014.7 987.2
02 13.08 В 1 50 км в посл. час дождь н/о +9.0 +8.3 95 +9 +9 1014.6 987.1
03 13.08 СВ 2 45 км н/о +8.4 +8.0 97 +7 +7 1014.6 987.1
04 13.08 ЮВ 1 50 км в посл. час дождь н/о +8.9 +8.5 97 +8 +8 1014.6 987.1
05 13.08 Ю 1 50 км н/о +8.9 +8.5 97 +9 +9 1014.8 987.3
06 13.08 Ю 2 35 км н/о +8.6 +8.2 97 +7 +7 1014.9 987.3 +7.9 4
07 13.08 штиль 0 45 км н/о +9.1 +8.9 99 +8 +8 1015.3 987.8
08 13.08 СЗ 2 30 км н/о +11.1 +9.4 89 +10 +10 1015.2 987.9
09 13.08 СЗ 3 50 км н/о +12.8 +10.0 83 +12 +12 1014.8 987.7
10 13.08 З 5 45 км н/о +13.7 +8.6 71 +12 +12 1014.8 987.7
11 13.08 З 6 45 км в посл. час дождь н/о +13.3 +8.0 70 +11 +11 1015.0 987.9
12 13.08 З 5 45 км н/о +14.8 +9.4 70 +13 +13 1014.8 987.9 0.0
13 13.08 СЗ 5 50 км в посл. час дождь н/о +14.3 +8.6 69 +13 +13 1014.6 987.6
14 13.08 З 4 40 км н/о +14.8 +6.9 59 +14 +14 1014.4 987.5
15 13.08 З 7 50 км н/о +15.2 +6.6 56 +14 +14 1014.4 987.5
16 13.08 З 6 45 км н/о +14.5 +7.5 63 +13 +13 1014.6 987.7
17 13.08 СЗ 5 35 км н/о +15.1 +6.8 58 +14 +14 1014.5 987.6
18 13.08 З 4 50 км н/о +13.9 +7.9 67 +13 +13 1014.8 987.8 +16.2 0.8
19 13.08 З 2 35 км н/о +13.8 +8.4 70 +13 +13 1014.8 987.8
20 13.08 З 2 50 км н/о +11.5 +7.7 77 +10 +10 1015.3 988.0
21 13.08 ЮВ 2 50 км н/о +9.6 +7.7 88 +8 +8 1015.4 988.0
22 13.08 ЮВ 2 50 км н/о +9.1 +7.4 89 +8 +8 1015.4 987.9
23 13.08 ЮВ 2 50 км н/о +10.2 +8.3 88 +9 +9 1015.0 987.6
00 14.08 ЮВ 3 50 км н/о +9.7 +8.0 89 +8 +8 1014.8 987.4
01 14.08 ЮВ 3 50 км н/о +10.4 +7.8 84 +8 +8 1014.3 987.0
02 14.08 ЮВ 3 50 км н/о +10.6 +8.1 85 +9 +9 1013.8 986.5
03 14.08 Ю 3 50 км н/о +10.9 +8.6 86 +9 +9 1013.2 986.0
04 14.08 ЮВ 3 15 км в посл. час дождь н/о +11.2 +8.9 86 +9 +9 1012.6 985.4
05 14.08 ЮВ 4 40 км слаб. дождь н/о +10.8 +8.9 88 +8 +8 1012.2 985.0
06 14.08 Ю 2 45 км слаб. морось с дождем н/о +10.7 +9.4 92 +9 +9 1011.5 984.2 +8.8 0.2
07 14.08 ЮВ 4 9000 м слаб. ливневой дождь н/о +11.7 +10.0 89 +9 +9 1010.9 983.8
08 14.08 ЮВ 5 9000 м слаб. дождь н/о +11.6 +10.3 92 +9 +9 1010.3 983.2
09 14.08 ЮВ 5 18 км в посл. час дождь н/о +12.1 +10.9 92 +10 +10 1009.7 982.7
10 14.08 ЮВ 5 13 км слаб. морось с дождем н/о +12.8 +11.0 89 +11 +11 1009.1 982.2
11 14.08 ЮВ 6 50 км в посл. час дождь н/о +14.1 +12.2 88 +12 +12 1008.1 981.3
12 14.08 ЮВ 4 9000 м дым н/о +13.4 +12.1 92 +12 +12 1007.7 980.8 1
13 14.08 ЮВ 6 50 км слаб. ливневой дождь н/о +14.4 +12.6 89 +12 +12 1006.8 980.0
14 14.08 ЮВ 6 35 км в посл. час дождь н/о +15.2 +13.4 89 +14 +14 1005.7 979.1
15 14.08 Ю 4 45 км н/о +15.2 +13.5 90 +14 +14 1005.0 978.4
16 14.08 Ю 4 50 км в посл. час дождь н/о +14.9 +13.6 92 +14 +14 1004.5 977.8
17 14.08 Ю 4 45 км н/о +15.1 +13.5 90 +14 +14 1003.8 977.2
18 14.08 Ю 4 50 км н/о +15.1 +13.8 92 +14 +14 1003.3 976.7 +15.4 2
19 14.08 Ю 3 8000 м н/о +14.9 +13.7 93 +14 +14 1003.1 976.5
20 14.08 Ю 2 8000 м дымка н/о +14.5 +14.1 97 +14 +14 1002.9 976.3
21 14.08 ЮЗ 2 4400 м дымка н/о +14.6 +14.4 99 +14 +14 1002.7 976.1
22 14.08 ЮВ 2 12 км в посл. час дождь н/о +14.8 +14.7 99 +15 +15 1002.3 975.7
23 14.08 ЮЗ 2 8000 м в посл. час дождь н/о +14.5 +14.3 99 +14 +14 1002.3 975.7
00 15.08 З 3 50 км н/о +14.3 +12.7 90 +13 +13 1002.9 976.2 1
01 15.08 ЮЗ 1 50 км н/о +13.4 +12.2 92 +13 +13 1002.6 975.9
02 15.08 ЮЗ 3 27 км н/о +13.5 +12.8 96 +12 +12 1002.3 975.5
03 15.08 СЗ 2 40 км в посл. час дождь н/о +13.5 +12.9 96 +13 +13 1002.1 975.3
04 15.08 СЗ 3 3400 м морось с дождем н/о +13.3 +12.9 97 +12 +12 1002.1 975.3
05 15.08 СЗ 2 40 км в посл. час дождь н/о +13.0 +12.7 98 +12 +12 1002.3 975.5
06 15.08 СЗ 4 50 км в посл. час дождь н/о +13.3 +12.8 97 +12 +12 1002.9 976.1 +12.9 2
07 15.08 З 6 6000 м в посл. час дождь н/о +12.8 +12.1 96 +10 +10 1003.7 976.9
08 15.08 СЗ 8 50 км н/о +13.0 +12.1 94 +10 +10 1004.8 978.0
09 15.08 СЗ 9
{15}
3900 м ливневой дождь н/о +12.2 +10.9 92 +9 +9 1005.8 978.8
10 15.08 СЗ 9
{14}
45 км в посл. час дождь н/о +13.7 +10.6 82 +11 +11 1006.6 979.8
11 15.08 СЗ 8
{14}
50 км н/о +13.9 +9.8 76 +11 +11 1007.8 981.0
12 15.08 СЗ 9
{13}
50 км н/о +14.3 +8.4 68 +12 +12 1008.7 981.9 0.2
13 15.08 СЗ 8
{13}
40 км н/о +14.9 +8.9 67 +13 +13 1009.5 982.7
14 15.08 СЗ 9
{14}
26 км н/о +15.4 +7.5 59 +13 +13 1010.3 983.5
15 15.08 СЗ 8
{14}
35 км н/о +15.6 +8.0 61 +14 +14 1010.6 983.8
16 15.08 СЗ 8
{13}
40 км н/о +15.1 +7.6 61 +13 +13 1011.4 984.5
17 15.08 З 6 40 км н/о +14.4 +7.8 65 +13 +13 1012.0 985.1
18 15.08 З 5 50 км н/о +15.0 +8.4 65 +14 +14 1012.7 985.8 +16.5 0.2
19 15.08 СЗ 4 45 км н/о +14.0 +8.4 69 +13 +13 1013.3 986.3
20 15.08 З 3 45 км н/о +12.0 +8.0 76 +10 +10 1013.4 986.3
21 15.08 ЮЗ 1 45 км н/о +10.3 +8.0 86 +11 +11 1013.8 986.5
22 15.08 З 3 50 км н/о +12.8 +9.7 81 +11 +11 1013.8 986.7
23 15.08 В 1 50 км н/о +12.4 +9.7 84 +12 +12 1013.4 986.3
00 16.08 ЮВ 3 45 км н/о +13.4 +10.8 84 +12 +12 1012.4 985.4
01 16.08 ЮВ 4 35 км н/о +13.3 +11.3 88 +12 +12 1011.8 984.8
02 16.08 ЮВ 4 50 км н/о +13.9 +11.4 85 +12 +12 1011.2 984.3
03 16.08 ЮЗ 5 45 км н/о +14.2 +12.4 89 +13 +13 1010.7 983.8
04 16.08 Ю 3 40 км н/о +14.0 +12.1 88 +13 +13 1009.7 982.8
05 16.08 Ю 4 45 км н/о +13.7 +11.7 88 +12 +12 1008.5 981.7
06 16.08 Ю 6 40 км н/о +13.5 +11.5 88 +11 +11 1007.6 980.7 +10.1
07 16.08 Ю 7 30 км слаб. ливневой дождь н/о +13.4 +11.6 89 +11 +11 1006.9 980.0
08 16.08 Ю 7 30 км слаб. дождь н/о +13.2 +12.0 92 +10 +10 1006.0 979.1
09 16.08 Ю 7 23 км слаб. дождь н/о +13.4 +12.3 93 +11 +11 1005.0 978.2
10 16.08 Ю 6 35 км слаб. дождь н/о +13.5 +12.3 92 +11 +11 1004.0 977.2
11 16.08 Ю 7 29 км в посл. час дождь н/о +13.8 +12.6 92 +11 +11 1003.2 976.5
12 16.08 Ю 5 14 км в посл. час дождь н/о +14.0 +13.0 94 +12 +12 1002.4 975.7 1
13 16.08 Ю 6
{13}
5000 м дымка н/о +14.8 +13.8 94 +13 +13 1001.0 974.5
14 16.08 Ю 5 6000 м слаб. морось н/о +14.5 +13.9 96 +13 +13 1000.5 973.9
15 16.08 Ю 5 7000 м слаб. морось н/о +14.9 +14.4 97 +13 +13 999.5 973.0
16 16.08 ЮЗ 5 6000 м в посл. час морось н/о +15.3 +14.6 96 +14 +14 998.7 972.3
17 16.08 Ю 6 30 км ливневой дождь н/о +15.3 +14.8 97 +14 +14 997.6 971.1
18 16.08 Ю 5 16 км дождь н/о +15.7 +15.5 99 +15 +15 996.8 970.4 +15.7 5
19 16.08 Ю 7 7000 м слаб. морось н/о +15.7 +15.4 98 +14 +14 995.9 969.6
20 16.08 ЮЗ 7 30 км в посл. час дождь н/о +16.1 +15.4 96 +15 +15 995.9 969.6
21 16.08 ЮЗ 6 5000 м морось с дождем н/о +15.9 +15.1 95 +14 +14 996.0 969.7
22 16.08 З 5 7000 м сильн. ливневой дождь н/о +15.3 +14.9 97 +14 +14 995.4 969.1
23 16.08 ЮЗ 5 10 км в посл. час дождь н/о +14.5 +14.2 98 +13 +13 995.6 969.2
00 17.08 ЮЗ 4 12 км в посл. час дождь н/о +14.3 +13.8 97 +13 +13 995.7 969.2 6
01 17.08 ЮЗ 5 17 км н/о +13.6 +12.5 93 +12 +12 995.6 969.1
02 17.08 ЮЗ 7 40 км н/о +13.7 +11.7 88 +11 +11 996.0 969.4
03 17.08 ЮЗ 6 50 км н/о +13.6 +11.7 88 +11 +11 996.0 969.5
04 17.08 ЮЗ 4 23 км в посл. час дождь н/о +13.5 +11.7 89 +12 +12 995.7 969.1
05 17.08 ЮЗ 5 50 км в посл. час дождь н/о +13.1 +11.9 92 +11 +11 995.6 969.0
06 17.08 З 3 45 км н/о +13.4 +12.1 92 +12 +12 996.3 969.7 +13.0 6
07 17.08 ЮЗ 2 45 км н/о +13.6 +11.6 88 +13 +13 996.9 970.3
08 17.08 З 5 40 км н/о +14.4 +9.7 73 +13 +13 997.5 971.0
09 17.08 З 6 30 км н/о +14.7 +10.3 75 +13 +13 997.9 971.4
10 17.08 З 7 30 км н/о +15.2 +10.1 72 +13 +13 998.3 971.8
11 17.08 З 10
{14}
30 км н/о +14.8 +8.2 65 +12 +12 998.7 972.2
12 17.08 ЮЗ 9-14
{14}
26 км н/о +15.8 +10.2 69 +14 +14 998.8 972.4
13 17.08 З 10-15
{15}
26 км н/о +15.9 +9.1 64 +14 +14 999.0 972.5
14 17.08 З 9
{15}
45 км н/о +15.5 +9.6 68 +13 +13 999.4 972.9
15 17.08 ЮЗ 8
{14}
30 км н/о +15.9 +9.5 66 +14 +14 999.5 973.1
16 17.08 ЮЗ 8-13
{13}
30 км н/о +16.0 +9.4 65 +14 +14 999.4 973.0
17 17.08 ЮЗ 8
{15}
30 км н/о +15.0 +10.6 75 +13 +13 999.3 972.8
18 17.08 ЮЗ 5
{14}
30 км в посл. час дождь н/о +14.8 +10.6 76 +13 +13 999.2 972.7 +16.5 0.0
19 17.08 ЮЗ 5 18 км н/о +14.1 +11.1 82 +12 +12 999.4 972.8
20 17.08 ЮЗ 7 20 км в посл. час дождь н/о +13.6 +11.1 85 +11 +11 999.1 972.5
21 17.08 ЮЗ 8
{13}
16 км н/о +13.6 +11.2 85 +11 +11 999.3 972.6
22 17.08 ЮЗ 8 21 км в посл. час дождь н/о +13.3 +11.3 88 +11 +11 999.1 972.4
23 17.08 ЮЗ 6 15 км слаб. морось с дождем н/о +13.4 +11.6 89 +11 +11 998.8 972.2
00 18.08 ЮЗ 8 16 км в посл. час дождь н/о +13.3 +11.3 88 +10 +10 998.5 971.9 0.0
01 18.08 ЮЗ 7 21 км в посл. час дождь н/о +13.2 +11.2 88 +11 +11 998.0 971.4
02 18.08 ЮЗ 5 22 км н/о +12.6 +10.7 88 +10 +10 997.7 971.1
03 18.08 ЮЗ 5 20 км в посл. час дождь н/о +12.6 +11.4 92 +10 +10 997.5 970.8
04 18.08 ЮЗ 6 25 км в посл. час дождь н/о +12.4 +10.7 89 +10 +10 997.2 970.5
05 18.08 З 6 35 км н/о +11.9 +9.8 87 +9 +9 997.2 970.4
06 18.08 ЮЗ 6 26 км н/о +11.7 +9.6 87 +9 +9 997.0 970.3 +11.1 0.2
07 18.08 ЮЗ 7 19 км н/о +12.3 +10.0 86 +9 +9 997.0 970.3
08 18.08 ЮЗ 7 15 км н/о +12.7 +10.3 85 +10 +10 996.8 970.2
09 18.08 ЮЗ 7 23 км в посл. час дождь н/о +13.4 +11.3 87 +11 +11 997.0 970.4
10 18.08 ЮЗ 7
{13}
22 км в посл. час дождь н/о +13.3 +11.8 91 +11 +11 997.2 970.6
11 18.08 З 7 12 км в посл. час дождь н/о +13.6 +11.3 86 +11 +11 997.6 971.0
12 18.08 З 9
{16}
21 км н/о +14.5 +10.6 77 +12 +12 997.7 971.2 0.2
13 18.08 З 11-16
{16}
15 км дым н/о +14.9 +10.7 76 +12 +12 998.1 971.6
14 18.08 З 8-14
{14}
28 км в посл. час дождь н/о +13.9 +10.4 79 +11 +11 998.7 972.1
15 18.08 З 8-13
{13}
8000 м ливневой дождь н/о +12.7 +11.3 91 +10 +10 998.8 972.1
16 18.08 З 8-14
{14}
24 км в посл. час дождь н/о +14.8 +12.0 83 +13 +13 999.1 972.6
17 18.08 З 9-14
{15}
35 км н/о +14.3 +10.8 79 +12 +12 999.0 972.4
18 18.08 З 7
{13}
30 км н/о +14.7 +11.5 81 +13 +13 999.5 972.9 +15.2 0.8
19 18.08 ЮЗ 4 40 км н/о +13.9 +10.5 80 +12 +12 1000.4 973.8
20 18.08 З 5 45 км н/о +12.6 +10.6 88 +10 +10 1001.0 974.2
21 18.08 З 5 40 км н/о +13.1 +11.0 87 +11 +11 1001.6 974.9
22 18.08 З 5 35 км в посл. час дождь н/о +13.0 +11.4 90 +11 +11 1002.0 975.3
23 18.08 ЮЗ 3 24 км в посл. час дождь н/о +12.8 +11.8 94 +11 +11 1002.5 975.7
00 19.08 ЮЗ 3 21 км в посл. час дождь н/о +12.8 +11.9 94 +12 +12 1002.8 976.0 0.0
01 19.08 З 3 7000 м слаб. ливневой дождь н/о +12.6 +11.7 94 +11 +11 1003.4 976.6

 

Местоположение метеостанции Варкоп (Великобритания): широта 54.57 долгота -2.42 высота над уровнем моря 227 м.

В архиве по умолчанию представлена погода в Варкопе за последнюю неделю. Архивные данные за месяц целиком и за предыдущие месяцы, начиная с января 2011 года, Вы можете получить, выбрав интересующий диапазон дат из раскрывающегося списка и нажав кнопку "Ввод!".


*Определитесь, кто Вы:
робот инопланетянин человек

Внимание! Время в таблицах - всемирное. Для получения местного времени необходимо прибавить поправку, которая равна 0 ч.

Смотрите также архив погоды в соседних городах и на ближайших метеорологических станциях:

Погода в Грэйт Дан Фелле (Великобритания) (12 км)
Погода в Шапе (Великобритания) (18 км)
Погода в Кесвике (Великобритания) (49 км)
Погода в Карлайле (Великобритания) (53 км)
Погода в Спадедэме (Великобритания) (54 км)
Погода в Альбермарле (Великобритания) (61 км)
Погода в Лееминге (Великобритания) (65 км)
Погода на Острове Уолни (Великобритания) (73 км)
Погода на Мысе Сент-Бис (Великобритания) (76 км)
Погода в Топклиффе (Великобритания) (79 км)

Пояснения к столбцам:

Ветер - указаны скорость ветра в м/с - средняя за 10 мин, порывы в срок и между сроками (в фигурных скобках) и направление, откуда дует ветер: С - северный, СВ - северо-восточный, В - восточный, ЮВ - юго-восточный, Ю - южный, ЮЗ - юго-западный, З - западный, СЗ - северо-западный.
Видимость - горизонтальная дальность видимости в метрах или километрах. При видимости от 1 до 10 км при отсутствии осадков обычно наблюдается дымка, при ухудшении видимости до 1 км и менее - туман. В сухую погоду видимость может ухудшаться дымом, пылью или мглою.
Явления - указаны атмосферные явления, наблюдавшиеся в срок или в последний час перед сроком; фигурными скобками обозначены явления, наблюдавшиеся между сроками (за 1-3 часа до срока); квадратными скобками обозначены град или гололедные отложения с указанием их диаметра в мм.
Облачность - указаны через наклонную черту общая и нижняя облачность в баллах и высота нижней границы облаков в метрах; квадратными скобками обозначены формы облаков: Ci - перистые, Cs - перисто-слоистые, Cc - перисто-кучевые, Ac - высококучевые, As - высокослоистые, Sc - слоисто-кучевые, Ns - слоисто-дождевые, Cu - кучевые, Cb - кучево-дождевые. Подробнее классификацию облаков см. в Атласе облаков (PDF).
T - Температура воздуха - температура, измеренная на высоте 2 м над землей.
Td - Температура точки росы - температура, при понижении до которой содержащийся в воздухе водяной пар достигнет насыщения.
f - Относительная влажность воздуха - влажноcть воздуха, измеренная на высоте 2 м над землей.
Te - Эффективная температура - температура, которую ощущает одетый по сезону человек в тени. Характеристика душности погоды. При расчете учитывается влияние влажности воздуха и скорости ветра на теплоощущения человека.
Tes - Эффективная температура на солнце - температура, которую ощущает человек, с поправкой на солнечный нагрев. Характеристика знойности погоды. Зависит от высоты солнца над горизонтом, облачности и скорости ветра. Ночью, в пасмурную погоду, а также при ветре 12 м/с и более поправка равна нулю.
P - Атмосферное давление - приведенное к уровню моря атмосферное давление.
Po - Атмосферное давление - измеренное на уровне метеостанции атмосферное давление.
Tmin - Минимальная температура - минимум температуры воздуха на высоте 2 м над землей.
Tmax - Максимальная температура - максимум температуры воздуха на высоте 2 м над землей.
R - Количество осадков - Количество выпавших осадков за период времени, мм. При наведении курсора мыши на число - период времени, за который выпало указанное количество осадков.
R24 - Количество осадков - Количество выпавших осадков за 24 часа, мм.
S - Снежный покров - Высота снежного покрова, см. При наведении курсора мыши на число - состояние снежного покрова и степень покрытия местности в баллах.